Hourly Data Report for October 11, 2014

All times are specified in Local Standard Time (LST). Add 1 hour to adjust for Daylight Saving Time where and when it is observed.

IQALUIT CLIMATE
NUNAVUT

63°44'50.000" N
68°32'40.000" W
33.50 m
2402592
71321
XFB

Download Data

Hourly Data (October 2014)
Hourly Data Report for October 11, 2014
Temp Definition
°C
Dew Point Temp Definition
°C
Rel Hum Definition
%
Wind Dir Definition
10's deg

Wind Spd Definition
km/h
Visibility Definition
km
Stn Press Definition
kPa
Hmdx Definition


Wind Chill Definition


Weather Definition


TIME
00:00 -1.6 -2.0 97 34 4   98.86   -3 LegendNANA
01:00 -1.6 -1.9 98 29 5   98.91   -3 LegendNANA
02:00 -1.8 -2.1 98 28 4   98.96   -3 LegendNANA
03:00 -1.9 -2.1 98 27 3   99.00   -3 LegendNANA
04:00 -1.8 -2.1 98 26 5   99.07   -4 LegendNANA
05:00 -2.0 -2.4 97 25 3   99.15   -3 LegendNANA
06:00 -2.3 -2.5 98 13 2   99.20   -3 LegendNANA
07:00 -3.1 -3.8 95 1 2   99.25   -4 LegendNANA
08:00 -1.6 -4.7 79 23 7   99.29   -4 LegendNANA
09:00 -1.6 -5.9 72 20 13   99.35   -6 LegendNANA
10:00 -1.9 -6.5 71 18 9   99.40   -5 LegendNANA
11:00 -1.4 -6.1 70 14 15   99.40   -6 LegendNANA
12:00 -1.6 -6.1 71 12 19   99.41   -7 LegendNANA
13:00 -1.1 -5.9 70 15 28   99.42   -8 LegendNANA
14:00 -1.6 -4.5 81 15 29   99.44   -8 LegendNANA
15:00 -1.9 -4.5 82 14 30   99.46   -9 LegendNANA
16:00 -1.7 -3.9 85 14 29   99.48   -9 LegendNANA
17:00 -1.3 -3.3 87 13 26   99.47   -8 LegendNANA
18:00 -0.6 -3.8 79 17 17   99.46   -6 LegendNANA
19:00 -0.7 -3.5 82 15 13   99.51   -5 LegendNANA
20:00 -0.7 -4.8 74 19 14   99.56   -5 LegendNANA
21:00 -1.0 -3.4 83 15 19   99.59   -6 LegendNANA
22:00 -0.6 -4.1 77 16 22   99.59   -6 LegendNANA
23:00 -1.4 -2.7 91 16 22   99.60   -7 LegendNANA

Notes on Data Quality.

Legend

  • E = Estimated
  • M = Missing
  • NA = Not Available
  • ‡ = Partner data that is not subject to review by the National Climate Archives
Date modified: